Preview of NWS' New Version of Forecast
This preview is not operational and should not be used for support decisions.

Regional Weather Roundup (RWR)

Issued by National Weather Service (NWS)

                            
000
ASUS45 KBOU 190110
RWRCO 

WEATHER ROUNDUP FOR COLORADO
NATIONAL WEATHER SERVICE DENVER/BOULDER CO
700 PM MDT TUE JUN 18 2019

NOTE: "FAIR" INDICATES FEW OR NO CLOUDS BELOW 12000 FEET WITH NO
SIGNIFICANT WEATHER AND/OR OBSTRUCTIONS TO VISIBILITY.

COZ001>005-013-030-031-190200-
...NORTHWEST COLORADO...
  
CITY           SKY/WX    TMP DP  RH WIND       PRES   REMARKS
CRAIG          LGT RAIN  54  48  80 S14       30.12F                  
HAYDEN         LGT RAIN  51  48  89 SE15      30.17R                  
MEEKER         LGT RAIN  57  47  69 N8        30.15R                  
RANGELY        CLOUDY    69  46  42 E18       30.06R                  
RABBIT EARS PA NOT AVBL                                               
STEAMBOAT SPGS CLOUDY    48  48 100 NW6       30.23R                  
WALDEN         CLOUDY    46  43  87 S9        30.23S                  
$$

COZ006>008-011-190200-
...WEST CENTRAL VALLEYS...
  
CITY           SKY/WX    TMP DP  RH WIND       PRES   REMARKS
GRAND JUNCTION FAIR      74  47  38 N8        30.02F                  
MONTROSE       CLOUDY    62  47  57 S16G22    30.14R                  
EAGLE          RAIN      53  47  79 S13       30.18F                  
RIFLE          PTSUNNY   61  53  75 SE5       30.11F                  
DELTA          PTSUNNY   69  47  46 CALM      30.11R                  
NUCLA          CLOUDY    61  46  59 NE13G18   30.16R                  
$$

COZ017>023-064>068-190200-
...SOUTHWEST COLORADO...
  
CITY           SKY/WX    TMP DP  RH WIND       PRES   REMARKS
DURANGO        PTSUNNY   67  36  31 W10       30.16S                  
CORTEZ         LGT RAIN  67  47  48 S7        30.11S                  
PAGOSA SPRINGS FAIR      61  40  46 W7        30.21S                  
TELLURIDE      FAIR      52  43  71 CALM      30.33S THUNDER          
WOLF CREEK PAS FAIR      43  27  52 W9G17     30.48S                  
$$

COZ009-010-012-014-032>034-037-058>063-190200-
...CENTRAL COLORADO...
  
CITY           SKY/WX    TMP DP  RH WIND       PRES   REMARKS
ASPEN          PTSUNNY   56  44  64 CALM      30.19F                  
BUENA VISTA    FAIR      59  37  43 W18G24    30.18R                  
COPPER MTN     PTSUNNY   41  37  87 W15G29    30.39F THUNDER          
BERTHOUD PASS  CLOUDY    32  23  69 W29G36    30.38S WCI  18          
COTTONWOOD PAS PTSUNNY   50  36  57 W9G24     30.29S                  
GUNNISON       FAIR      56  43  61 W3        30.23F                  
GRANBY         CLOUDY    50  45  82 CALM      30.23R                  
KREMMLING      NOT AVBL                                               
LEADVILLE      PTSUNNY   50  37  61 NW9G17    30.29F                  
MONARCH PASS   SNOW      34  32  93 MISG      30.50F VSB<1/4          
SALIDA         CLOUDY    57  42  57 SW18G26   30.24F                  
SUNLIGHT       TSTM      36  34  93 W16G26    30.40S VSB 1/4          
WILKERSON PASS PTSUNNY   45  34  65 NW5       30.38R                  
$$

COZ069>075-190200-
...SAN LUIS VALLEY/SANGRE DE CRISTO MOUNTAINS...
  
CITY           SKY/WX    TMP DP  RH WIND       PRES   REMARKS
ALAMOSA        FAIR      60  36  40 NW18G28   30.18F                  
DEL NORTE      FAIR      58  37  44 W9        30.22S                  
LA VETA PASS   NOT AVBL                                               
SAGUACHE       FAIR      54  41  62 CALM      30.22F                  
$$

COZ035-036-038>040-190200-
...NORTHERN COLORADO FRONT RANGE...
  
CITY           SKY/WX    TMP DP  RH WIND       PRES   REMARKS
DENVER INTL AP PTSUNNY   58  55  90 E10       30.05R                  
AURORA         PTSUNNY   61  53  76 E8        30.07R                  
FRONT RANGE AP PTSUNNY   57  55  94 E6        30.06F                  
ERIE MUNI ARPT CLOUDY    61  53  75 NE8       30.10R                  
BOULDER MUN AP FAIR      59  52  77 N3        30.07R                  
CENTENNIAL     PTSUNNY   62  49  62 NE8       30.08R                  
BROOMFIELD     PTSUNNY   59  54  82 N8        30.09R                  
FORT COLLINS     N/A     59  55  87 N7        30.07R                  
LONGMONT       PTSUNNY   62  53  73 CALM      30.08R HAZE             
$$

COZ041-046-047-076>085-087-088-190200-
...PIKES PEAK/PALMER DIVIDE AND SOUTHERN FOOTHILLS...
  
CITY           SKY/WX    TMP DP  RH WIND       PRES   REMARKS
COLO. SPRINGS  PTSUNNY   55  52  89 W8        30.09S                  
A. F. ACADEMY  PTSUNNY   55  53  94 S6        30.09S                  
SCHRIEVER AFB  NOT AVBL                                               
CHEYENNE MTN   NOT AVBL                                               
ELLICOTT       LGT RAIN N/A N/A N/A SE10      30.03F                  
FALCON         CLOUDY    53  50  91 W9        30.13R                  
FORT CARSON    CLOUDY    56  52  86 SW3       30.04F                  
LIMON          PTSUNNY   61  56  83 CALM      30.05R                  
MONUMENT HILL  PTSUNNY   55  50  82 N5        30.15R                  
CANON CITY     CLOUDY    64  54  68 SE6       30.04F                  
WALSENBURG     NOT AVBL                                               
TRINIDAD       FAIR      62  52  69 E10G22    30.06R                  
$$

COZ042>045-048>051-090-091-190200-
...NORTHEAST COLORADO...
  
CITY           SKY/WX    TMP DP  RH WIND       PRES   REMARKS
GREELEY ARPT   LGT RAIN  59  54  83 NE7       30.04R                  
AKRON          TSTM      60  58  92 CALM      30.02R FOG              
BURLINGTON     FAIR      66  60  81 E5        29.98R                  
WRAY           FAIR      68  55  64 NE6       29.98R                  
YUMA           MOCLDY    64  43  45 NW3       30.00R                  
STERLING       LGT RAIN  61  59  94 W3        29.95F                  
HOLYOKE        PTSUNNY   66  59  77 CALM      29.98R                  
FORT MORGAN    FAIR      57  53  87 N3        30.00S                  
$$

COZ086-089-092>099-190200-
...SOUTHEAST COLORADO...
  
CITY           SKY/WX    TMP DP  RH WIND       PRES   REMARKS
PUEBLO         PTSUNNY   64  58  80 NE5       30.01R                  
LA JUNTA       LGT RAIN  65  58  78 E12       29.98R                  
LAMAR          TSTM      61  55  81 W23G51    29.97R VSB 1            
SPRINGFIELD      N/A     48  48 100 SW13G22   30.04R                  
$$